Flag for U.S.A. Weather past 2 weeks in Jackson, Mississippi, U.S.A.

Now
94 °F

Sunny.


Feels Like: 98 °F
Forecast: 74 / 94 °F
Wind: 5 mph from Southwest

Location: Hawkins Field

Current Time: Sep 4, 2015 at 3:02:15 PM

Latest Report: Sep 4, 2015 at 1:53 PM


Visibility: 10 mi

Pressure: 29.95 "Hg

Humidity: 41%

Dew point: 67 °F

Location of JacksonLocation

Historic Weather in Jackson — Graph

°F

Jackson temperature yesterday

Maximum temperature yesterday: 95 °F (at 3:53 PM)
Minimum temperature yesterday: 71 °F (at 5:53 AM)
Average temperature yesterday: 82 °F

Past Weeks' High & Low Weather Summary

 TemperatureHumidityPressure
High95 °F (Sep 3, 3:53 PM)97% (Aug 21, 3:00 AM)30.11 "Hg (Aug 21, 3:00 AM)
Low59 °F (Aug 27, 5:53 AM)24% (Aug 26, 3:53 PM)29.86 "Hg (Sep 3, 5:53 PM)
Average80 °F63%30.00 "Hg
* Reported Aug 20 1:53 PM — Sep 4 1:53 PM, Jackson, Weather by CustomWeather, © 2015

Note: Actual official high and low records may vary slightly from our data, if they occured in-between our weather recording intervals... More about our weather records

Advertising

Jackson weather history for previous 24 hours

 ConditionsComfort  
Time TempWeatherWind HumidityBarometerVisibility
1:53 PM
Fri, Sep 4
94 °FSunny.5 mph41%29.95 "Hg10 mi
12:53 PM92 °FSunny.3 mph47%29.97 "Hg10 mi
11:53 AM89 °FSunny.No wind53%29.98 "Hg10 mi
10:53 AM86 °FSunny.3 mph63%30.00 "Hg10 mi
9:53 AM84 °FSunny.5 mph70%30.00 "Hg10 mi
8:53 AM79 °FSunny.No wind82%29.99 "Hg10 mi
7:53 AM75 °FSunny.No wind90%29.99 "Hg8 mi
6:53 AM73 °FClear.No wind94%29.97 "Hg10 mi
5:53 AM73 °FClear.No wind90%29.95 "Hg10 mi
4:53 AM73 °FClear.No wind88%29.95 "Hg10 mi
3:53 AM75 °FClear.3 mph82%29.94 "Hg10 mi
2:53 AM76 °FClear.No wind80%29.93 "Hg10 mi
1:53 AM76 °FClear.No wind80%29.93 "Hg10 mi
12:53 AM77 °FClear.3 mph77%29.92 "Hg10 mi
11:53 PM
Thu, Sep 3
79 °FClear.5 mph72%29.92 "Hg10 mi
10:53 PM81 °FClear.No wind67%29.92 "Hg10 mi
9:53 PM82 °FClear.6 mph65%29.91 "Hg10 mi
8:53 PM84 °FPassing clouds.5 mph61%29.90 "Hg10 mi
7:53 PM87 °FPassing clouds.5 mph51%29.87 "Hg10 mi
6:53 PM91 °FPassing clouds.No wind44%29.86 "Hg10 mi
5:53 PM94 °FSunny.3 mph36%29.86 "Hg10 mi
4:53 PM94 °FSunny.No wind36%29.87 "Hg10 mi
3:53 PM95 °FScattered clouds.N/A39%29.89 "Hg10 mi
Weather by CustomWeather, © 2015

See weather overviewHow to use our weather pages